User: anonymous   Login
Location: Unspecified
(0.0000°N, 0.0000°E)
Time: 17:24:59
(UTC+00:00)
Language:

AISAT - Orbit

View from above orbital plane
View from above orbital plane
View from above satellite
View from above satellite

Ground track
Ground track

The orbit data is extracted from the following two-line orbital elements,

1 40054U 14034B   21336.91810113  .00001047  00000-0  15026-3 0  9993
2 40054  98.3402 135.8798 0012031 220.7624 139.2687 14.78704564400424
Epoch (UTC): 02 December 2021 22:02:03
Eccentricity: 0.0012031
inclination: 98.3402°
perigee height: 625 km
apogee height: 642 km
right ascension of ascending node: 135.8798°
argument of perigee: 220.7624°
revolutions per day: 14.78704564
mean anomaly at epoch: 139.2687°
orbit number at epoch: 40042

The dashed part of the orbit path shows where the satellite is in the earth's shadow,  

DLR